{"data":{"norad_id":53623,"intl_designator":"2022-104AM","name":"STARLINK-4573","alt_names":[],"object_type":"PAYLOAD","status":"ACTIVE","operator":null,"country":"US","launch_date":"2022-08-28","launch_site_code":"AFETR","launch_vehicle":null,"mission":null,"orbit_class":"UNKNOWN","rcs_meters":null,"size_class":null,"mass_kg":null,"dimensions":null,"purposes":["comms"],"wikipedia_slug":null,"has_3d_model":false,"image_url":null,"decayed_at":null,"tle_current":{"epoch":"2026-09-20T23:24:29.020896Z","epoch_age_seconds":40457,"freshness":"FRESH","line1":"1 53623U 22104AM  26263.97533589 -.00000260  00000+0  34102-5 0  9999","line2":"2 53623  53.1608  61.5635 0001626 116.8940 243.2228 15.31699760225441","mean_motion":15.3169976,"eccentricity":0.0001626,"inclination_deg":53.1608,"raan_deg":61.5635,"arg_perigee_deg":116.894,"mean_anomaly_deg":243.2228,"bstar":3.4102e-6,"rev_number":22544,"period_min":94.01320269189,"perigee_km":469.6270831375,"apogee_km":471.854338169,"semimajor_km":6848.8777106533,"source":"CELESTRAK","updated_at":"2026-09-21T09:00:32.942483Z"}}}